Weather in Kazanskoye

Russia / Oryol Oblast     52°16′10″N   37°45′06″E
temp.,
°C
wind,
m/s
gust,
m/s
humid.,
%
clouds,
%
prec.,
mm/h
press.,
hPa
HPBL,
m
14 august, sun
sun1400:00+22e3657100 0.1 1019133
03:00+21e3668100 0.1 1019189
06:00+21e3663100 0.1 1019132
09:00+20ne358099 0.9 1019137
12:00+25ene5758100 0.0 1018597
15:00+25ene585473 0.0 1017670
18:00+26ene684461 0.0 1017686
21:00+21ene495449 0.0 1017203
15 august, mon
mon1500:00+19ene411605 0.0 1017213
03:00+18ene496245 0.0 1016169
06:00+18ene4106523 0.0 1017192
09:00+25e69425 0.0 1016495
12:00+30e783125 0.0 10161648
15:00+32e772768 0.0 10151845
18:00+30e61032100 0.0 1014600
21:00+26ene7154198 0.0 1015498
16 august, tue
tue1600:00+24e71544100 0.2 1015484
03:00+22ese7154757 0.3 1016520
06:00+21e71543100 0.1 1016441
09:00+24e8143576 0.1 1016547
12:00+28ese7928100 0.0 1016976
15:00+30e782771 0.0 10151512
18:00+28ese3533100 0.0 1015242
21:00+24e1139100 0.0 101624
17 august, wed
wed1700:00+24ene484695 0.0 1015253
03:00+22ene5114962 0.0 1014252
06:00+22ene6135092 0.0 1014387
09:00+26e7143493 0.0 1013746
12:00+27e71133100 0.0 1013742
15:00+30e71030100 0.0 10131363
18:00+29ene91431100 0.0 10111011
21:00+26ene9183026 0.0 1011718
18 august, thu
thu1800:00+24ene71637100 0.1 1012564
03:00+23ene61439100 0.2 1012359
06:00+22ene61442100 0.0 1011350
09:00+24ene71340100 0.0 1011526
12:00+27ene81033100 0.0 1011791
15:00+30ene783182 0.0 10111085
18:00+27ne6114065 0.0 1011999
21:00+25ne614385 0.0 1010418